#timestamp,LO_Frequency,Hit,StdDev 
1511413215.3,286046995.0,N
1511413235.1,286046996.6,N
1511413236.0,286046996.6,N
1511413255.8,286046995.8,N
1511413275.7,286046992.9,Y
1511413295.5,286046999.2,P
1511413315.3,286047001.1,N
1511413335.2,286047004.3,N
1511413355.9,286047002.1,N
1511413375.7,286046998.6,N
1511413395.6,286046998.0,N
1511413415.4,286046996.9,N
1511413435.2,286046997.7,N
1511413455.0,286046996.0,N
1511413456.0,286046996.0,N
1511413475.8,286046995.8,N
1511413495.6,286046993.8,N
1511413515.5,286046991.5,Y
1511413535.3,286046990.8,P
1511413555.1,286046986.9,P
1511413575.8,286046984.4,P
1511413595.7,286046984.7,N
1511413615.5,286046982.1,Y
1511413635.3,286046993.5,P
1511413655.2,286046993.6,N
1511413675.0,286046997.8,N
1511413675.9,286046997.8,N
1511413695.7,286046996.8,N
1511413715.6,286046995.5,N
1511413735.4,286046997.2,N
1511413755.2,286046996.6,N
1511413775.1,286046998.1,N
1511413776.0,286046998.1,N
1511413795.8,286047000.8,N
1511413815.6,286047002.0,N
1511413835.5,286047007.5,N
1511413855.3,286047006.3,N
1511413875.1,286047006.5,N
1511413895.9,286047010.8,N
1511413915.7,286047009.5,N
1511413935.5,286047013.6,N
1511413955.3,286047011.9,N
1511413975.2,286047010.2,N
1511413995.0,286047013.1,N
1511413995.9,286047013.1,N
1511414015.7,286047011.1,N
1511414035.6,286047011.2,N
1511414055.4,286047014.7,N
1511414075.2,286047012.7,N
1511414095.1,286047012.9,N
1511414096.0,286047012.9,N
1511414115.8,286047014.8,N
1511414135.6,286047012.5,N
1511414155.5,286047013.2,N
1511414175.3,286047011.6,N
1511414195.1,286047013.8,N
1511414215.9,286047007.8,N
1511414235.7,286047007.8,N
1511414255.5,286047008.7,N
1511414275.4,286047007.0,N
1511414295.2,286047007.5,N
1511414315.0,286047006.0,N
1511414315.9,286047006.0,N
1511414335.8,286047003.3,N
1511414355.6,286047005.2,N
1511414375.4,286047004.8,N
1511414395.2,286047008.6,N
1511414415.1,286047009.9,Y
1511414416.0,286047009.9,P
1511414435.8,286047001.9,P
1511414455.6,286047002.9,N
1511414475.5,286047005.7,N
1511414495.3,286047004.8,N
1511414515.1,286047008.8,N
1511414535.9,286047010.1,Y
1511414555.7,286047007.2,P
1511414575.5,286047006.6,P
1511414595.4,286047009.5,P
1511414615.2,286047012.9,Y
1511414635.0,286047007.4,P
1511414636.0,286047007.4,P
1511414655.8,286047009.1,P
1511414675.6,286047009.7,Y
1511414695.5,286047005.4,P
1511414715.3,286047002.4,N
1511414735.1,286046998.4,N
1511414755.8,286046999.1,N
1511414775.7,286047001.6,N
1511414795.5,286047001.5,N
1511414815.3,286047001.9,N
1511414835.2,286047001.6,N
1511414855.9,286047003.5,N
1511414875.7,286046999.9,N
1511414895.6,286047000.2,N
1511414915.4,286047000.3,N
1511414935.2,286046996.5,N
1511414955.1,286046995.2,N
1511414956.0,286046995.2,N
1511414975.8,286046994.3,N
1511414995.6,286046996.1,N
1511415015.5,286046997.6,N
1511415035.3,286047000.0,N
1511415055.1,286046997.4,N
1511415075.8,286046997.8,N
1511415095.7,286046999.1,N
1511415115.5,286046999.0,N
1511415135.3,286046996.5,N
1511415155.2,286046995.6,N
1511415175.9,286046995.0,N
1511415195.7,286046997.5,N
1511415215.6,286046995.8,N
1511415235.4,286046994.2,N
1511415255.2,286046994.1,N
1511415275.1,286046993.8,N
1511415276.0,286046993.8,N
1511415295.8,286046993.5,N
1511415315.6,286046994.7,N
1511415335.5,286046995.4,N
1511415355.3,286046995.6,N
1511415375.1,286046997.0,N
1511415395.8,286047000.0,N
1511415415.7,286047004.4,N
1511415435.5,286047004.7,N
1511415455.3,286047005.7,N
1511415475.2,286047003.1,N
1511415495.0,286047003.3,N
1511415495.9,286047003.3,N
1511415515.7,286047003.2,N
1511415535.6,286047004.6,N
1511415555.4,286047007.0,N
1511415575.2,286047009.1,N
1511415595.1,286047006.3,N
1511415596.0,286047006.3,N
1511415615.8,286047008.4,N
1511415635.6,286047004.8,N
1511415655.5,286047006.8,N
1511415675.3,286047005.9,N
1511415695.1,286047004.7,N
1511415715.9,286047001.8,N
1511415735.7,286047001.1,N
1511415755.5,286046998.8,N
1511415775.4,286046999.5,N
1511415795.2,286046997.5,N
1511415815.0,286046996.5,N
1511415815.9,286046996.5,N
1511415835.7,286046999.3,N
1511415855.6,286046998.6,N
1511415875.4,286046999.4,N
1511415895.2,286046998.6,N
1511415915.1,286046997.0,N
1511415916.0,286046997.0,N
1511415935.8,286046994.0,N
1511415955.6,286046996.0,N
1511415975.5,286046996.6,N
1511415995.3,286046994.7,N
1511416015.1,286046990.8,N
1511416035.9,286046985.4,Y
1511416055.7,286046984.3,P
1511416075.5,286046984.6,N
1511416095.4,286046982.6,N
1511416115.2,286046983.5,N
1511416135.0,286046981.1,N
1511416135.9,286046981.1,N
1511416155.8,286046977.8,Y
1511416175.6,286046989.1,P
1511416195.4,286046982.6,P
1511416215.3,286046979.5,P
1511416235.1,286046975.8,Y
1511416255.8,286046994.0,P
1511416275.7,286046992.0,N
1511416295.5,286046993.9,N
1511416315.3,286046994.8,N
1511416335.2,286046991.6,N
1511416355.9,286046993.2,N
1511416375.7,286046991.7,N
1511416395.5,286046994.5,N
1511416415.4,286046994.0,N
1511416435.2,286046996.3,N
1511416455.0,286046999.0,N
1511416455.9,286046999.0,N
1511416475.8,286046999.2,N
1511416495.6,286046995.9,N
1511416515.4,286046996.3,N
1511416535.3,286046997.9,N
1511416555.1,286046999.4,N
1511416575.8,286046997.0,N
1511416595.7,286046993.3,N
1511416615.5,286046995.9,N
1511416635.3,286046995.3,N
1511416655.2,286046996.6,N
1511416675.9,286046999.0,N
1511416695.7,286047004.4,N
1511416715.5,286047004.1,N
1511416735.4,286047009.1,N
1511416755.2,286047010.8,N
1511416775.0,286047007.4,N
1511416775.9,286047007.4,N
1511416795.8,286047010.1,N
